Location: Rodanthe
(35.5920°N, 75.4670°W)
Time: 07:48:05
(UTC-04:00)

ISS - All Passes

Search period start: 19 September 2014 00:00
Search period end: 29 September 2014 00:00
Orbit: 414 x 417 km, 51.6° (Epoch: 19 September)

Date Brightness Start Highest point End Pass type
(mag) Time Alt. Az. Time Alt. Az. Time Alt. Az.
19 Sep - 02:26:10 10° SSW 02:29:17 39° SE 02:32:25 10° ENE night (unlit)
19 Sep - 04:03:31 10° W 04:06:06 21° NNW 04:08:42 10° NNE visible
19 Sep - 08:57:47 10° NNW 09:00:06 17° NNE 09:02:24 10° ENE daylight
19 Sep - 10:33:46 10° WNW 10:37:01 52° SW 10:40:15 10° SSE daylight
20 Sep - 01:38:04 10° S 01:40:37 20° SE 01:43:09 10° E night (unlit)
20 Sep - 03:14:07 10° WSW 03:17:10 32° NW 03:20:13 10° NNE visible
20 Sep - 08:09:39 10° N 08:11:03 12° NNE 08:12:27 10° NE daylight
20 Sep - 09:44:55 10° NW 09:48:15 77° NE 09:51:33 10° SE daylight
21 Sep - 00:51:05 10° SE 00:51:57 11° SE 00:52:49 10° ESE night (unlit)
21 Sep - 02:24:59 10° WSW 02:28:15 59° NW 02:31:33 10° NE night (unlit)
21 Sep - 04:04:45 10° NW 04:05:33 11° NNW 04:06:21 10° N visible
21 Sep - 08:56:11 10° NW 08:59:21 40° NE 09:02:30 10° ESE daylight
21 Sep - 10:33:40 10° W 10:35:48 16° SW 10:37:56 10° SSW daylight
22 Sep - 01:36:05 10° SW 01:39:23 70° SE 01:42:42 10° NE night (unlit)
22 Sep - 03:14:23 10° WNW 03:16:25 15° NNW 03:18:26 10° N night (unlit)
22 Sep - 08:07:34 10° NNW 08:10:21 24° NNE 08:13:08 10° E daylight
22 Sep - 09:44:06 10° WNW 09:47:04 30° SW 09:50:01 10° SSE daylight
23 Sep - 00:47:31 10° SSW 00:50:33 34° SE 00:53:36 10° ENE night (unlit)
23 Sep - 02:24:36 10° W 02:27:18 22° NNW 02:30:00 10° NNE night (unlit)
23 Sep - 07:19:05 10° NNW 07:21:15 16° NNE 07:23:25 10° ENE daylight
23 Sep - 08:54:56 10° NW 08:58:14 61° SW 09:01:30 10° SE daylight
23 Sep - 23:59:24 10° S 00:01:44 18° SE 00:04:05 10° E night (unlit)
24 Sep - 01:35:07 10° WSW 01:38:14 36° NW 01:41:21 10° NNE night (unlit)
24 Sep - 06:30:57 10° N 06:32:03 11° NNE 06:33:09 10° NE daylight
24 Sep - 08:05:59 10° NW 08:09:17 67° NE 08:12:35 10° SE daylight
25 Sep - 00:45:54 10° SW 00:49:12 69° NW 00:52:31 10° NE night (unlit)
25 Sep - 02:25:15 10° NW 02:26:25 11° NNW 02:27:36 10° N night (unlit)
25 Sep - 07:17:08 10° NNW 07:20:15 35° NE 07:23:20 10° ESE daylight
25 Sep - 08:54:22 10° W 08:56:44 18° SW 08:59:07 10° S daylight
25 Sep - 23:56:56 10° SW 00:00:12 59° SE 00:03:29 10° NE night (unlit)
26 Sep - 01:34:57 10° WNW 01:37:09 16° NNW 01:39:22 10° NNE night (unlit)
26 Sep - 06:28:25 10° NNW 06:31:05 22° NNE 06:33:45 10° E visible
26 Sep - 08:04:47 10° WNW 08:07:51 35° SW 08:10:54 10° SSE daylight
26 Sep - 23:08:19 10° SSW 23:11:14 29° SE 23:14:11 10° ENE night (unlit)
27 Sep - 00:45:07 10° W 00:47:55 25° NNW 00:50:44 10° NNE night (unlit)
27 Sep - 05:39:51 10° N 05:41:50 15° NNE 05:43:48 10° ENE visible
27 Sep - 07:15:32 10° NW 07:18:51 72° SW 07:22:09 10° SE daylight
27 Sep - 22:20:15 10° SSE 22:22:18 16° SE 22:24:22 10° E night (unlit)
27 Sep - 23:55:33 10° WSW 23:58:43 41° NW 00:01:55 10° NE night (unlit)
28 Sep - 04:51:49 10° N 04:52:28 10° NNE 04:53:07 10° NNE visible
28 Sep - 06:26:28 10° NW 06:29:45 57° NE 06:33:01 10° ESE visible
28 Sep - 08:04:59 10° WSW 08:06:03 11° SW 08:07:07 10° SW daylight
28 Sep - 23:06:15 10° SW 23:09:34 81° NW 23:12:54 10° NE night (unlit)
